User: anonymous   Login
Location: Unspecified
(0.0000°N, 0.0000°E)
Time: 02:49:02
(UTC+02:00)
Language:

Resurs 1-3 - Orbit

View from above orbital plane
View from above orbital plane
View from above satellite
View from above satellite

Ground track
Ground track

The orbit data is extracted from the following two-line orbital elements,

1 23342U 94074A   17203.59245329 +.00000018 +00000-0 +94963-5 0  9995
2 23342 098.0758 241.9913 0001469 067.8806 292.2560 14.79274360222743
Epoch (UTC): 22 July 2017 14:13:07
Eccentricity: 0.0001469
inclination: 98.0758°
perigee height: 630 km
apogee height: 632 km
right ascension of ascending node: 241.9913°
argument of perigee: 67.8806°
revolutions per day: 14.79274360
mean anomaly at epoch: 292.2560°
orbit number at epoch: 22274

The dashed part of the orbit path shows where the satellite is in the earth's shadow,  

DLR